TimeEST,TemperatureF,Dew PointF,Humidity,Sea Level PressureIn,VisibilityMPH,Wind Direction,Wind SpeedMPH,Gust SpeedMPH,PrecipitationIn,Events,Conditions,WindDirDegrees,DateUTC
12:54 AM,32.0,28.9,88,30.49,7.0,NNW,6.9,-,N/A,,Overcast,330,2012-12-02 05:54:00
1:19 AM,32.0,28.4,87,30.49,7.0,NW,8.1,-,N/A,,Overcast,310,2012-12-02 06:19:00
1:54 AM,32.0,28.9,88,30.48,7.0,NNW,5.8,-,N/A,,Overcast,340,2012-12-02 06:54:00
2:30 AM,32.0,28.4,87,30.48,6.0,NW,4.6,-,0.00,Rain,Light Freezing Rain,320,2012-12-02 07:30:00
2:39 AM,32.0,28.4,87,30.47,6.0,NNW,6.9,-,0.00,,Overcast,330,2012-12-02 07:39:00
2:54 AM,32.0,28.0,85,30.47,6.0,NW,6.9,-,0.00,,Overcast,320,2012-12-02 07:54:00
3:54 AM,32.0,28.9,88,30.45,6.0,NW,6.9,-,N/A,,Overcast,310,2012-12-02 08:54:00
4:54 AM,32.0,28.9,88,30.42,6.0,NW,4.6,-,0.00,,Overcast,310,2012-12-02 09:54:00
5:54 AM,33.1,28.9,85,30.41,6.0,NNW,4.6,-,N/A,,Overcast,330,2012-12-02 10:54:00
6:12 AM,33.8,28.4,81,30.41,6.0,NNW,5.8,-,N/A,,Overcast,330,2012-12-02 11:12:00
6:54 AM,33.1,30.0,89,30.40,6.0,West,5.8,-,N/A,,Overcast,280,2012-12-02 11:54:00
7:27 AM,33.8,30.2,87,30.39,4.0,WNW,4.6,-,N/A,,Overcast,290,2012-12-02 12:27:00
7:54 AM,34.0,30.0,85,30.39,4.0,WNW,5.8,-,N/A,,Overcast,290,2012-12-02 12:54:00
8:31 AM,33.8,30.2,87,30.38,2.5,WNW,6.9,-,N/A,,Overcast,290,2012-12-02 13:31:00
8:54 AM,35.1,32.0,89,30.36,2.5,Calm,Calm,-,N/A,,Overcast,0,2012-12-02 13:54:00
9:54 AM,37.9,34.0,86,30.35,2.5,Calm,Calm,-,N/A,,Overcast,0,2012-12-02 14:54:00
10:20 AM,37.4,35.6,93,30.34,1.8,Calm,Calm,-,N/A,,Overcast,0,2012-12-02 15:20:00
10:54 AM,39.0,36.0,89,30.31,1.5,Calm,Calm,-,N/A,,Overcast,0,2012-12-02 15:54:00
11:54 AM,41.0,37.9,89,30.28,1.8,Calm,Calm,-,N/A,,Overcast,0,2012-12-02 16:54:00
12:18 PM,42.8,39.2,87,30.27,1.8,Calm,Calm,-,N/A,,Overcast,0,2012-12-02 17:18:00
12:54 PM,45.0,41.0,86,30.24,1.8,Variable,3.5,-,N/A,,Overcast,0,2012-12-02 17:54:00
12:58 PM,44.6,41.0,87,30.24,4.0,Calm,Calm,-,N/A,,Overcast,0,2012-12-02 17:58:00
1:54 PM,46.9,42.1,83,30.20,5.0,Calm,Calm,-,N/A,,Haze,0,2012-12-02 18:54:00
2:54 PM,46.0,41.0,83,30.17,4.0,Calm,Calm,-,N/A,,Haze,0,2012-12-02 19:54:00
3:22 PM,42.8,39.2,87,30.16,4.0,SE,4.6,-,N/A,,Overcast,130,2012-12-02 20:22:00
3:54 PM,44.1,39.9,85,30.15,8.0,Calm,Calm,-,N/A,,Overcast,0,2012-12-02 20:54:00
4:54 PM,43.0,41.0,93,30.13,8.0,South,3.5,-,N/A,,Mostly Cloudy,190,2012-12-02 21:54:00
5:54 PM,48.0,44.1,86,30.11,9.0,SSW,5.8,-,N/A,,Overcast,200,2012-12-02 22:54:00
6:54 PM,52.0,44.1,74,30.10,10.0,SW,12.7,-,N/A,,Overcast,220,2012-12-02 23:54:00
7:54 PM,52.0,42.1,69,30.09,10.0,SW,13.8,-,N/A,,Overcast,230,2012-12-03 00:54:00
8:54 PM,51.1,43.0,74,30.06,10.0,South,15.0,-,0.00,Rain,Light Rain,190,2012-12-03 01:54:00
9:54 PM,51.1,44.1,77,30.07,10.0,SW,19.6,-,0.00,Rain,Light Rain,220,2012-12-03 02:54:00
10:54 PM,50.0,45.0,83,30.06,10.0,SW,12.7,-,0.00,,Overcast,230,2012-12-03 03:54:00
11:54 PM,51.1,46.0,83,30.04,10.0,SW,13.8,-,0.00,,Overcast,230,2012-12-03 04:54:00